"Pseudo-MPEC" for CD8LWG2

Created 2025 Apr 30 12:31:03 UT using Find_Orb

Click here for an explanation of pseudo-MPECs

 
 Astrometry: 
     CD8LWG2*1C2025 04 25.32102814 13 12.947+10 28 44.44   ~4PC2 21.42GVNEOCPG96
     CD8LWG2 1C2025 04 25.32617714 13 10.585+10 29 03.26   ~4PC2 21.04GVNEOCPG96
     CD8LWG2 1C2025 04 25.33132814 13 08.353+10 29 20.47   ~4PC2 20.91GVNEOCPG96

Station data:
(G96) Mt. Lemmon Survey  (N32.442729 W110.788720)  US/Arizona.  Observer E.
   J. Christensen.  + 10K CCD.

Orbital elements:  CD8LWG2
   Perihelion 2025 Aug 8.20233 +/- 92.5 TT =  4:51:21 (JD 2460895.70233)
Epoch 2025 Apr 25.0 TT = JDT 2460790.5   Earth MOID: 0.0284      AutoNEOCP
M 187.25843012 +/- 120              (J2000 ecliptic)
n   1.64199370 +/- 0.71             Peri.  194.30584 +/- 57
a   0.71157670 +/- 0.205            Node   198.71477 +/- 70
e   0.8557695 +/- 0.227             Incl.   21.25370 +/- 60
P   0.600/219.242d         H 22.25  G  0.15   U 12.5  SR
q 0.10263105 +/- 0.431    Q 1.32052235 +/- 13.1
From 3 observations 2025 Apr. 25 (14.8 min); mean residual 0".42
Residuals in arcseconds: 
250425 G96  .32+  .27-    250425 G96  .64-  .54+    250425 G96  .32+  .27-    

Ephemerides (geocentric):
Date (UTC) HH   RA             Dec           delta  r     elong  mag " sig PA
---- --------  ------------   ------------  ------ ------ -----  --- --------
2025 04 30 13  13 35 56.653   +15 04 36.92  .34787 1.3133 147.2 21.7  30d  98
2025 04 30 14  13 35 39.415   +15 06 33.10  .34804 1.3132 147.1 21.7  30d  98
2025 04 30 15  13 35 22.190   +15 08 29.00  .34820 1.3132 147.0 21.7  30d  98
2025 04 30 16  13 35 04.979   +15 10 24.63  .34836 1.3131 146.9 21.7  30d  98
2025 04 30 17  13 34 47.782   +15 12 19.99  .34853 1.3131 146.8 21.7  30d  98
2025 04 30 18  13 34 30.599   +15 14 15.07  .34869 1.3130 146.7 21.7  30d  98
2025 04 30 19  13 34 13.429   +15 16 09.88  .34886 1.3129 146.6 21.7  30d  98
2025 04 30 20  13 33 56.274   +15 18 04.42  .34902 1.3129 146.6 21.7  30d  98
2025 04 30 21  13 33 39.132   +15 19 58.69  .34919 1.3128 146.5 21.7  30d  98
2025 04 30 22  13 33 22.005   +15 21 52.68  .34936 1.3128 146.4 21.7  31d  98
2025 04 30 23  13 33 04.892   +15 23 46.39  .34953 1.3127 146.3 21.7  31d  98
2025 05 01 00  13 32 47.793   +15 25 39.84  .34970 1.3126 146.2 21.7  31d  98
2025 05 01 01  13 32 30.709   +15 27 33.01  .34987 1.3126 146.1 21.7  31d  98
2025 05 01 02  13 32 13.639   +15 29 25.90  .35004 1.3125 146.0 21.7  31d  98
2025 05 01 03  13 31 56.584   +15 31 18.52  .35021 1.3124 145.9 21.7  31d  98
2025 05 01 04  13 31 39.543   +15 33 10.86  .35039 1.3124 145.9 21.7  31d  98
2025 05 01 05  13 31 22.517   +15 35 02.93  .35056 1.3123 145.8 21.7  31d  98
2025 05 01 06  13 31 05.505   +15 36 54.72  .35073 1.3122 145.7 21.7  31d  98
2025 05 01 07  13 30 48.509   +15 38 46.24  .35091 1.3122 145.6 21.7  31d  98
2025 05 01 08  13 30 31.527   +15 40 37.48  .35109 1.3121 145.5 21.7  31d  98
2025 05 01 09  13 30 14.560   +15 42 28.45  .35126 1.3120 145.4 21.7  31d  98
2025 05 01 10  13 29 57.609   +15 44 19.14  .35144 1.3120 145.3 21.8  31d  98
2025 05 01 11  13 29 40.672   +15 46 09.55  .35162 1.3119 145.2 21.8  31d  98
2025 05 01 12  13 29 23.751   +15 47 59.69  .35180 1.3118 145.2 21.8  31d  98
2025 05 01 13  13 29 06.845   +15 49 49.55  .35198 1.3118 145.1 21.8  31d  98
2025 05 01 14  13 28 49.954   +15 51 39.13  .35216 1.3117 145.0 21.8  31d  98
2025 05 01 15  13 28 33.079   +15 53 28.44  .35234 1.3116 144.9 21.8  31d  98
2025 05 01 16  13 28 16.219   +15 55 17.47  .35252 1.3116 144.8 21.8  31d  98
2025 05 01 17  13 27 59.375   +15 57 06.22  .35270 1.3115 144.7 21.8  31d  98
2025 05 01 18  13 27 42.546   +15 58 54.70  .35289 1.3114 144.6 21.8  31d  98
2025 05 01 19  13 27 25.733   +16 00 42.90  .35307 1.3114 144.5 21.8  31d  98
2025 05 01 20  13 27 08.936   +16 02 30.82  .35325 1.3113 144.4 21.8  32d  98
2025 05 01 21  13 26 52.155   +16 04 18.46  .35344 1.3112 144.4 21.8  32d  98
2025 05 01 22  13 26 35.389   +16 06 05.83  .35363 1.3112 144.3 21.8  32d  98
2025 05 01 23  13 26 18.640   +16 07 52.92  .35381 1.3111 144.2 21.8  32d  98
2025 05 02 00  13 26 01.907   +16 09 39.73  .35400 1.3110 144.1 21.8  32d  98
2025 05 02 01  13 25 45.189   +16 11 26.26  .35419 1.3110 144.0 21.8  32d  98
2025 05 02 02  13 25 28.488   +16 13 12.52  .35438 1.3109 143.9 21.8  32d  98
2025 05 02 03  13 25 11.803   +16 14 58.50  .35457 1.3108 143.8 21.8  32d  98
2025 05 02 04  13 24 55.135   +16 16 44.20  .35476 1.3108 143.7 21.8  32d  98
2025 05 02 05  13 24 38.482   +16 18 29.62  .35495 1.3107 143.7 21.8  32d  98
2025 05 02 06  13 24 21.847   +16 20 14.77  .35514 1.3106 143.6 21.8  32d  98
2025 05 02 07  13 24 05.228   +16 21 59.63  .35533 1.3105 143.5 21.8  32d  98
2025 05 02 08  13 23 48.625   +16 23 44.22  .35553 1.3105 143.4 21.8  32d  98
2025 05 02 09  13 23 32.039   +16 25 28.53  .35572 1.3104 143.3 21.8  32d  98
2025 05 02 10  13 23 15.469   +16 27 12.56  .35592 1.3103 143.2 21.8  32d  98
2025 05 02 11  13 22 58.917   +16 28 56.32  .35611 1.3103 143.1 21.8  32d  98
2025 05 02 12  13 22 42.381   +16 30 39.80  .35631 1.3102 143.0 21.8  32d  98